User: anonymous   Login
Location: ??????????
(42.1626°N, 44.1160°E)
Time: 14:29:38
(UTC+00:00)
Language:

Lacrosse 4 Rocket - Orbit

View from above orbital plane
View from above orbital plane
View from above satellite
View from above satellite

Ground track
Ground track

The orbit data is extracted from the following two-line orbital elements,

1 26474U 00047B   21127.10696031  .00000128  00000-0  21913-4 0  9994
2 26474  67.9934 264.6979 0058133 206.1200 153.7008 14.96138662127737
Epoch (UTC): 07 May 2021 02:34:01
Eccentricity: 0.0058133
inclination: 67.9934°
perigee height: 538 km
apogee height: 619 km
right ascension of ascending node: 264.6979°
argument of perigee: 206.1200°
revolutions per day: 14.96138662
mean anomaly at epoch: 153.7008°
orbit number at epoch: 12773

The dashed part of the orbit path shows where the satellite is in the earth's shadow,  

DLR